Pagosa Springs, CO

4:56 PM MDT on August 22, 2017 (GMT -0600)
Pagosa Springs

Weather History for KPSO - December, 2013

Change the Weather History Date:

Wednesday, December 11, 2013

  Actual Average (KE33) Record (KE33)
Temperature  
Mean Temperature 17 °F -  
Max Temperature 34 °F 34 °F 53 °F (2004)
Min Temperature 0 °F 17 °F 10 °F (1998)
Degree Days  
Heating Degree Days 48    
Moisture  
Dew Point 5 °F    
Average Humidity 68    
Maximum Humidity 93    
Minimum Humidity 32    
Precipitation  
Precipitation 0.00 in - - ()
Sea Level Pressure  
Sea Level Pressure 30.37 in    
Wind  
Wind Speed 0 mph (SSW)    
Max Wind Speed 4 mph    
Max Gust Speed -    
Visibility 10 miles    
Events      
Averages and records for this station are not official NWS values.
T = Trace of Precipitation, MM = Missing Value Source: NWS Daily Summary

Daily Weather History Graph

Daily Weather History Graph

Search for Another Location

Airport or City:

Trip Planner

Search our weather history database for the weather conditions in past years. The results will help you decide how hot, cold, wet, or windy it might be!

Date:

Astronomy

Dec. 11, 2013 Rise Set
Actual Time 7:12 AM MST 4:50 PM MST
Civil Twilight 6:43 AM MST 5:19 PM MST
Nautical Twilight 6:10 AM MST 5:52 PM MST
Astronomical Twilight 5:39 AM MST 6:24 PM MST
Moon 1:20 PM MST (12/11) 1:42 AM MST (12/11)
Length of Visible Light 10h 36m
Length of Day
9h 38m
Waxing Gibbous, 72% of the Moon is Illuminated
Dec 11
Waxing Gibbous
Dec 17
Full
Dec 25
Last Quarter
Jan 1
New
Jan 7
First Quarter

Hourly Weather History & Observations

Time (MST) Temp. Windchill Dew Point Humidity Pressure Visibility Wind Dir Wind Speed Gust Speed Precip Events Conditions
12:15 AM 2.1 °F - -0.9 °F 87% 30.25 in 10.0 mi Calm Calm - N/A   Clear
12:35 AM 3.2 °F - 1.0 °F 91% 30.25 in 10.0 mi Calm Calm - N/A   Clear
12:55 AM 1.4 °F - -0.8 °F 91% 30.25 in 10.0 mi Calm Calm - N/A   Clear
1:15 AM 0.9 °F - -3.3 °F 83% 30.25 in 10.0 mi Calm Calm - N/A   Clear
1:35 AM 5.4 °F - 2.3 °F 87% 30.25 in 10.0 mi Calm Calm - N/A   Clear
1:55 AM 3.4 °F - 0.7 °F 89% 30.25 in 10.0 mi Calm Calm - N/A   Clear
2:15 AM 2.3 °F - -0.6 °F 88% 30.25 in 10.0 mi Calm Calm - N/A   Clear
2:35 AM 4.6 °F - 1.2 °F 86% 30.26 in 10.0 mi Calm Calm - N/A   Clear
2:55 AM 1.8 °F - -1.1 °F 88% 30.27 in 10.0 mi Calm Calm - N/A   Clear
3:15 AM 3.0 °F - 0.1 °F 88% 30.27 in 10.0 mi Calm Calm - N/A   Clear
3:35 AM 4.1 °F - 2.5 °F 93% 30.27 in 10.0 mi Calm Calm - N/A   Clear
3:55 AM 0.7 °F - -1.8 °F 89% 30.27 in 10.0 mi Calm Calm - N/A   Clear
4:15 AM 2.1 °F - -1.8 °F 83% 30.27 in 10.0 mi Calm Calm - N/A   Clear
4:35 AM 1.6 °F - -0.6 °F 91% 30.27 in 10.0 mi Calm Calm - N/A   Clear
4:55 AM 1.4 °F - -3.1 °F 81% 30.27 in 10.0 mi Calm Calm - N/A   Clear
5:15 AM 1.2 °F - -3.6 °F 80% 30.27 in 10.0 mi Calm Calm - N/A   Clear
5:35 AM 4.3 °F - 1.2 °F 87% 30.28 in 10.0 mi Calm Calm - N/A   Clear
5:55 AM 3.9 °F - 0.5 °F 86% 30.29 in 10.0 mi Calm Calm - N/A   Clear
6:15 AM 3.0 °F - -0.4 °F 86% 30.30 in 10.0 mi Calm Calm - N/A   Clear
6:35 AM -0.2 °F - -3.8 °F 85% 30.30 in 10.0 mi Calm Calm - N/A   Clear
6:55 AM 1.0 °F - -3.5 °F 81% 30.31 in 10.0 mi Calm Calm - N/A   Clear
7:15 AM 0.3 °F - -4.4 °F 81% 30.32 in 10.0 mi Calm Calm - N/A   Clear
7:35 AM 3.7 °F - 0.5 °F 86% 30.33 in 10.0 mi Calm Calm - N/A   Clear
7:55 AM 3.9 °F - 0.1 °F 84% 30.34 in 10.0 mi Calm Calm - N/A   Clear
8:15 AM 3.9 °F - 0.7 °F 86% 30.35 in 10.0 mi Calm Calm - N/A   Clear
8:35 AM 7.3 °F - 5.4 °F 92% 30.36 in 10.0 mi Calm Calm - N/A   Clear
8:55 AM 10.2 °F - 7.0 °F 87% 30.37 in 10.0 mi Calm Calm - N/A   Clear
9:15 AM 15.1 °F - 11.5 °F 86% 30.38 in 10.0 mi Calm Calm - N/A   Clear
9:35 AM 18.0 °F - 11.8 °F 77% 30.39 in 10.0 mi Calm Calm - N/A   Clear
9:55 AM 18.3 °F - 9.0 °F 67% 30.40 in 10.0 mi Calm Calm - N/A   Clear
10:15 AM 20.1 °F - 10.2 °F 66% 30.41 in 10.0 mi Calm Calm - N/A   Clear
10:35 AM 23.5 °F - 10.6 °F 58% 30.41 in 10.0 mi Calm Calm - N/A   Clear
10:55 AM 24.6 °F - 11.1 °F 57% 30.41 in 10.0 mi Calm Calm - N/A   Clear
11:15 AM 26.4 °F - 10.9 °F 52% 30.40 in 10.0 mi Calm Calm - N/A   Clear
11:35 AM 28.0 °F - 9.7 °F 46% 30.40 in 10.0 mi Calm Calm - N/A   Clear
11:55 AM 29.1 °F - 7.7 °F 41% 30.39 in 10.0 mi Calm Calm - N/A   Clear
12:15 PM 30.2 °F - 8.8 °F 41% 30.39 in 10.0 mi Calm Calm - N/A   Clear
12:35 PM 30.9 °F - 5.4 °F 34% 30.39 in 10.0 mi Calm Calm - N/A   Clear
12:55 PM 32.0 °F - 9.5 °F 39% 30.39 in 10.0 mi Calm Calm - N/A   Clear
1:15 PM 32.0 °F - 8.2 °F 37% 30.39 in 10.0 mi Calm Calm - N/A   Clear
1:35 PM 32.2 °F - 8.1 °F 36% 30.38 in 10.0 mi Calm Calm - N/A   Clear
1:55 PM 32.7 °F - 7.3 °F 35% 30.38 in 10.0 mi Calm Calm - N/A   Clear
2:15 PM 33.8 °F - 7.0 °F 33% 30.38 in 10.0 mi Calm Calm - N/A   Clear
2:35 PM 34.2 °F - 6.8 °F 32% 30.38 in 10.0 mi Calm Calm - N/A   Clear
2:55 PM 34.0 °F - 8.6 °F 35% 30.39 in 10.0 mi Calm Calm - N/A   Clear
3:15 PM 34.2 °F 31.2 °F 11.1 °F 39% 30.39 in 10.0 mi SSW 3.5 mph - N/A   Clear
3:35 PM 33.6 °F - 9.3 °F 36% 30.40 in 10.0 mi Calm Calm - N/A   Clear
3:55 PM 32.4 °F - 8.8 °F 37% 30.40 in 10.0 mi Calm Calm - N/A   Clear
4:15 PM 31.1 °F - 9.0 °F 40% 30.40 in 10.0 mi Calm Calm - N/A   Clear
4:35 PM 30.7 °F - 8.8 °F 40% 30.41 in 10.0 mi Calm Calm - N/A   Clear
4:55 PM 23.9 °F - 8.2 °F 51% 30.41 in 10.0 mi Calm Calm - N/A   Clear
5:15 PM 19.2 °F - 7.5 °F 60% 30.41 in 10.0 mi Calm Calm - N/A   Clear
5:35 PM 20.5 °F - 8.1 °F 59% 30.42 in 10.0 mi Calm Calm - N/A   Clear
5:55 PM 21.9 °F - 9.3 °F 58% 30.42 in 10.0 mi Calm Calm - N/A   Clear
6:15 PM 20.7 °F - 7.5 °F 57% 30.42 in 10.0 mi Calm Calm - N/A   Clear
6:35 PM 21.9 °F - 9.1 °F 58% 30.43 in 10.0 mi Calm Calm - N/A   Clear
6:55 PM 21.0 °F - 9.1 °F 60% 30.44 in 10.0 mi Calm Calm - N/A   Clear
7:15 PM 19.4 °F - 8.8 °F 63% 30.44 in 10.0 mi Calm Calm - N/A   Clear
7:35 PM 16.9 °F - 8.2 °F 69% 30.45 in 10.0 mi Calm Calm - N/A   Clear
7:55 PM 14.9 °F - 8.1 °F 74% 30.46 in 10.0 mi Calm Calm - N/A   Clear
8:15 PM 16.9 °F - 8.1 °F 68% 30.46 in 10.0 mi Calm Calm - N/A   Clear
8:35 PM 13.1 °F - 6.3 °F 74% 30.46 in 10.0 mi Calm Calm - N/A   Clear
8:55 PM 15.4 °F - 7.0 °F 69% 30.47 in 10.0 mi Calm Calm - N/A   Clear
9:15 PM 14.0 °F - 7.9 °F 77% 30.47 in 10.0 mi Calm Calm - N/A   Clear
9:35 PM 10.8 °F - 4.3 °F 75% 30.47 in 10.0 mi Calm Calm - N/A   Clear
9:55 PM 12.6 °F - 6.1 °F 75% 30.48 in 10.0 mi Calm Calm - N/A   Clear
10:15 PM 7.5 °F - 3.0 °F 82% 30.48 in 10.0 mi Calm Calm - N/A   Clear
10:35 PM 11.5 °F - 4.6 °F 74% 30.48 in 10.0 mi Calm Calm - N/A   Clear
10:55 PM 10.8 °F - 6.1 °F 81% 30.48 in 10.0 mi Calm Calm - N/A   Clear
11:15 PM 11.1 °F - 6.3 °F 81% 30.48 in 10.0 mi Calm Calm - N/A   Clear
11:35 PM 11.5 °F - 6.6 °F 81% 30.47 in 10.0 mi Calm Calm - N/A   Clear
11:55 PM 9.1 °F - 4.3 °F 81% 30.47 in 10.0 mi Calm Calm - N/A   Clear